Weather History for Mattoon, IL

Change the Weather History Date:

Thursday, March 21, 2013

  Actual Average Record
Temperature  
Mean Temperature 26 °F 44 °F  
Max Temperature 35 °F 55 °F 81 °F (2012)
Min Temperature 17 °F 34 °F 12 °F (1951)
Degree Days  
Heating Degree Days 39 21  
Month to date heating degree days 631 511  
Since 1 July heating degree days 4594 4715  
Cooling Degree Days 0 0  
Month to date cooling degree days 0 0  
Year to date cooling degree days 0 0  
Moisture  
Dew Point 12 °F    
Average Humidity 59    
Maximum Humidity 81    
Minimum Humidity 36    
Precipitation  
Precipitation T in 0.09 in 0.83 in (1962)
Month to date precipitation 0.52 1.52  
Year to date precipitation 6.97 5.50  
Sea Level Pressure  
Sea Level Pressure 30.07 in    
Wind  
Wind Speed 5 mph (NNW)    
Max Wind Speed 15 mph    
Max Gust Speed 18 mph    
Visibility 10 miles    
Events Snow    
T = Trace of Precipitation, MM = Missing Value Source: NWS Daily Summary

Daily Weather History Graph

Daily Weather History Graph

Search for Another Location

Airport:

Trip Planner

Search our weather history database for the weather conditions in past years. The results will help you decide how hot, cold, wet, or windy it might be!

Date:

Astronomy

Mar. 21, 2013 Rise Set
Actual Time 6:54 AM CDT 7:06 PM CDT
Civil Twilight 6:27 AM CDT 7:33 PM CDT
Nautical Twilight 5:56 AM CDT 8:04 PM CDT
Astronomical Twilight 5:24 AM CDT 8:36 PM CDT
Moon 1:37 PM CDT (3/21) 3:14 AM CDT (3/21)
Length of Visible Light 13h 05m
Length of Day
12h 11m
Waxing Gibbous, 69% of the Moon is Illuminated
Mar 21
Waxing Gibbous
Mar 27
Full
Apr 2
Last Quarter
Apr 10
New
Apr 18
First Quarter

Hourly Weather History & Observations

Time (CDT) Temp. Windchill Dew Point Humidity Pressure Visibility Wind Dir Wind Speed Gust Speed Precip Events Conditions
1:53 AM 19.9 °F 8.6 °F 12.0 °F 71% 30.08 in 10.0 mi NW 10.4 mph - N/A   Clear
2:53 AM 17.1 °F 6.6 °F 10.9 °F 77% 30.07 in 10.0 mi WNW 8.1 mph - N/A   Clear
3:53 AM 19.0 °F 8.2 °F 12.0 °F 74% 30.06 in 10.0 mi NW 9.2 mph - N/A   Mostly Cloudy
4:32 AM 19.4 °F 7.9 °F 12.2 °F 74% 30.03 in 9.0 mi NNW 10.4 mph - 0.00 in Snow Light Snow
4:53 AM 19.0 °F 7.5 °F 14.0 °F 81% 30.06 in 9.0 mi NNW 10.4 mph - 0.00 in Snow Light Snow
5:38 AM 19.4 °F 7.2 °F 12.2 °F 74% 30.04 in 9.0 mi North 11.5 mph - 0.00 in   Overcast
5:53 AM 19.0 °F 6.8 °F 12.0 °F 74% 30.07 in 10.0 mi NNW 11.5 mph - 0.00 in   Overcast
6:08 AM 17.6 °F 7.3 °F 12.2 °F 79% 30.04 in 10.0 mi NNW 8.1 mph - N/A   Overcast
6:53 AM 17.1 °F 5.0 °F 12.0 °F 81% 30.09 in 10.0 mi NNW 10.4 mph - N/A   Partly Cloudy
7:53 AM 18.0 °F 5.4 °F 12.0 °F 78% 30.10 in 10.0 mi North 11.5 mph - N/A   Clear
8:53 AM 21.0 °F 11.4 °F 9.0 °F 60% 30.12 in 10.0 mi North 8.1 mph - N/A   Clear
9:53 AM 23.0 °F 14.7 °F 6.1 °F 48% 30.12 in 10.0 mi North 6.9 mph - N/A   Clear
10:53 AM 25.0 °F 20.7 °F 6.1 °F 45% 30.12 in 10.0 mi Variable 3.5 mph - N/A   Clear
11:53 AM 27.0 °F 20.5 °F 8.1 °F 45% 30.12 in 10.0 mi NNW 5.8 mph - N/A   Clear
12:53 PM 28.0 °F - 9.0 °F 45% 30.10 in 10.0 mi Calm Calm - N/A   Clear
1:53 PM 32.0 °F 27.5 °F 9.0 °F 38% 30.08 in 10.0 mi NNW 4.6 mph - N/A   Clear
2:53 PM 32.0 °F 28.7 °F 9.0 °F 38% 30.06 in 10.0 mi Variable 3.5 mph - N/A   Clear
3:53 PM 33.1 °F - 10.0 °F 38% 30.04 in 10.0 mi Calm Calm - N/A   Clear
4:53 PM 34.0 °F 31.0 °F 10.0 °F 37% 30.03 in 10.0 mi Variable 3.5 mph - N/A   Clear
5:53 PM 32.0 °F - 10.0 °F 40% 30.03 in 10.0 mi Calm Calm - N/A   Clear
6:53 PM 32.0 °F 28.7 °F 10.0 °F 40% 30.04 in 10.0 mi East 3.5 mph - N/A   Clear
7:53 PM 30.0 °F - 15.1 °F 54% 30.05 in 10.0 mi Calm Calm - N/A   Clear
8:53 PM 28.9 °F 25.2 °F 16.0 °F 58% 30.06 in 10.0 mi South 3.5 mph - N/A   Clear
9:53 PM 28.0 °F 24.2 °F 16.0 °F 61% 30.07 in 10.0 mi SSW 3.5 mph - N/A   Clear
10:53 PM 28.0 °F 22.8 °F 16.0 °F 61% 30.07 in 10.0 mi South 4.6 mph - N/A   Clear
11:53 PM 25.0 °F - 19.0 °F 78% 30.05 in 10.0 mi Calm Calm - N/A   Clear